DLH1771 LCPH-EDDM

Flight info

Callsign DLH1771
Flight time N/A
Altitude 36000
Route GENOS DCT PEDER DCT LUTIG DCT RDS UL609 MES DCT DISOR/N0445F380 DCT LONTA UL608 DOLEV DCT BEDOX DCT EXHEK DCT REDBU Q112 NAPSA NAPSA1B
Aircraft A320/M-SDE3FGHIRWY/LB1

Departure

Time 2026-04-14 14:04
Airport Paphos International Airport (LCPH)

Arrival

Time N/A
Airport Munich Airport (EDDM)
Time Latitude Longitude Altitude Speed Heading
2026-04-14 13:10 34.71301 32.48639 46 ft 0 kts 155°
2026-04-14 13:54 34.71308 32.48635 43 ft 3 kts 153°
2026-04-14 13:54 34.71327 32.48622 43 ft 3 kts 145°
2026-04-14 13:54 34.71343 32.48607 46 ft 3 kts 135°
2026-04-14 13:54 34.71357 32.48587 46 ft 3 kts 117°
2026-04-14 13:55 34.71363 32.48565 45 ft 3 kts 82°
2026-04-14 13:55 34.71362 32.48555 44 ft 0 kts 65°
2026-04-14 13:57 34.71367 32.48569 46 ft 4 kts 65°
2026-04-14 13:58 34.71383 32.48612 46 ft 5 kts 65°
2026-04-14 13:58 34.71397 32.48649 46 ft 4 kts 65°
2026-04-14 13:58 34.71408 32.48677 44 ft 3 kts 65°
2026-04-14 13:58 34.71428 32.48731 46 ft 11 kts 65°
2026-04-14 13:59 34.71464 32.48827 45 ft 12 kts 65°
2026-04-14 13:59 34.71497 32.48914 45 ft 10 kts 65°
2026-04-14 13:59 34.71537 32.48975 46 ft 9 kts 25°
2026-04-14 13:59 34.71612 32.49009 47 ft 13 kts 19°
2026-04-14 14:00 34.71681 32.48931 48 ft 18 kts 290°
2026-04-14 14:00 34.71732 32.48765 46 ft 24 kts 290°
2026-04-14 14:00 34.71795 32.48559 46 ft 28 kts 290°
2026-04-14 14:00 34.71863 32.48333 45 ft 29 kts 290°
2026-04-14 14:01 34.71933 32.48104 43 ft 29 kts 290°
2026-04-14 14:01 34.72005 32.47867 43 ft 30 kts 291°
2026-04-14 14:01 34.72079 32.47628 45 ft 31 kts 290°
2026-04-14 14:01 34.72149 32.47395 43 ft 26 kts 290°
2026-04-14 14:02 34.72197 32.47240 44 ft 9 kts 290°
2026-04-14 14:02 34.72189 32.47171 40 ft 8 kts 238°
2026-04-14 14:02 34.72196 32.47125 40 ft 6 kts 338°
2026-04-14 14:02 34.72221 32.47147 43 ft 4 kts 70°
2026-04-14 14:03 34.72214 32.47184 40 ft 8 kts 110°
2026-04-14 14:03 34.72150 32.47394 44 ft 59 kts 110°
2026-04-14 14:03 34.71926 32.48130 47 ft 124 kts 110°
2026-04-14 14:03 34.71558 32.49314 123 ft 167 kts 112°
2026-04-14 14:04 34.71153 32.50619 864 ft 166 kts 111°
2026-04-14 14:04 34.70754 32.51938 1589 ft 167 kts 108°
2026-04-14 14:04 34.70356 32.53271 2266 ft 168 kts 109°
2026-04-14 14:04 34.69959 32.54607 2959 ft 168 kts 110°
2026-04-14 14:05 34.69208 32.55720 3426 ft 185 kts 151°
2026-04-14 14:05 34.67887 32.55910 3739 ft 207 kts 196°
2026-04-14 14:05 34.66709 32.54831 4087 ft 228 kts 239°
2026-04-14 14:05 34.66094 32.52982 4541 ft 246 kts 253°
2026-04-14 14:06 34.65662 32.50915 5210 ft 256 kts 256°
2026-04-14 14:06 34.65266 32.48784 5986 ft 261 kts 256°
2026-04-14 14:06 34.64858 32.46623 6800 ft 264 kts 256°
2026-04-14 14:06 34.64427 32.44444 7611 ft 266 kts 256°
2026-04-14 14:07 34.63980 32.42258 8384 ft 272 kts 257°
2026-04-14 14:07 34.63912 32.39901 8864 ft 287 kts 277°
2026-04-14 14:07 34.64129 32.37467 9654 ft 291 kts 276°
2026-04-14 14:07 34.64339 32.35000 10383 ft 299 kts 276°
2026-04-14 14:08 34.64556 32.32395 10610 ft 323 kts 276°
2026-04-14 14:08 34.64785 32.29560 10994 ft 339 kts 276°
2026-04-14 14:08 34.65009 32.26720 11636 ft 344 kts 276°
2026-04-14 14:08 34.65237 32.23784 12390 ft 347 kts 276°
2026-04-14 14:09 34.65468 32.20861 13162 ft 348 kts 276°
2026-04-14 14:09 34.65702 32.17927 13932 ft 349 kts 276°
2026-04-14 14:09 34.65936 32.14990 14618 ft 351 kts 276°
2026-04-14 14:09 34.66170 32.12034 15307 ft 352 kts 276°
2026-04-14 14:10 34.66404 32.09069 15992 ft 353 kts 276°
2026-04-14 14:10 34.66638 32.06103 16672 ft 354 kts 275°
2026-04-14 14:10 34.66875 32.03122 17366 ft 354 kts 275°
2026-04-14 14:10 34.67112 32.00140 18033 ft 355 kts 275°
2026-04-14 14:11 34.67347 31.97142 18656 ft 357 kts 275°
2026-04-14 14:11 34.67583 31.94133 19168 ft 359 kts 275°
2026-04-14 14:11 34.67974 31.91127 19668 ft 362 kts 284°
2026-04-14 14:11 34.68848 31.88241 20147 ft 367 kts 295°
2026-04-14 14:12 34.70121 31.85543 20629 ft 371 kts 299°
2026-04-14 14:12 34.70995 31.83765 20962 ft 372 kts 299°
2026-04-14 14:12 34.72323 31.81048 21451 ft 375 kts 299°
2026-04-14 14:12 34.73658 31.78308 21921 ft 377 kts 298°
2026-04-14 14:13 34.74994 31.75559 22431 ft 380 kts 299°
2026-04-14 14:13 34.76362 31.72742 22893 ft 382 kts 299°
2026-04-14 14:13 34.77705 31.69981 23343 ft 385 kts 299°
2026-04-14 14:13 34.79089 31.67138 23780 ft 388 kts 299°
2026-04-14 14:14 34.80463 31.64314 24170 ft 390 kts 299°
2026-04-14 14:14 34.81828 31.61501 24553 ft 392 kts 299°
2026-04-14 14:14 34.83229 31.58608 24941 ft 393 kts 299°
2026-04-14 14:14 34.84622 31.55722 25320 ft 395 kts 298°
2026-04-14 14:15 34.86008 31.52845 25700 ft 396 kts 298°
2026-04-14 14:15 34.87409 31.49944 26070 ft 398 kts 299°
2026-04-14 14:15 34.88819 31.47033 26437 ft 399 kts 299°
2026-04-14 14:15 34.90231 31.44120 26805 ft 401 kts 299°
2026-04-14 14:16 34.91651 31.41185 27170 ft 402 kts 299°
2026-04-14 14:16 34.93070 31.38247 27533 ft 404 kts 298°
2026-04-14 14:16 34.94495 31.35286 27892 ft 405 kts 298°
2026-04-14 14:17 34.97349 31.29332 28580 ft 408 kts 298°
2026-04-14 14:17 34.98787 31.26336 28916 ft 409 kts 298°
2026-04-14 14:17 35.00225 31.23341 29250 ft 410 kts 298°
2026-04-14 14:17 35.01670 31.20333 29622 ft 411 kts 298°
2026-04-14 14:18 35.03115 31.17320 29944 ft 412 kts 298°
2026-04-14 14:18 35.04559 31.14306 30253 ft 413 kts 298°
2026-04-14 14:18 35.06010 31.11273 30520 ft 414 kts 298°
2026-04-14 14:18 35.07459 31.08240 30874 ft 412 kts 298°
2026-04-14 14:19 35.08891 31.05233 31308 ft 409 kts 298°
2026-04-14 14:19 35.10313 31.02246 31776 ft 404 kts 298°
2026-04-14 14:19 35.11716 30.99298 32212 ft 401 kts 298°
2026-04-14 14:19 35.13113 30.96361 32628 ft 398 kts 298°
2026-04-14 14:20 35.14501 30.93445 33057 ft 395 kts 298°
2026-04-14 14:20 35.15872 30.90563 33494 ft 391 kts 298°
2026-04-14 14:20 35.17236 30.87696 33917 ft 389 kts 298°
2026-04-14 14:20 35.18581 30.84790 34309 ft 386 kts 296°
2026-04-14 14:21 35.19804 30.81930 34648 ft 383 kts 295°
2026-04-14 14:21 35.20994 30.78998 34998 ft 380 kts 295°
2026-04-14 14:21 35.22130 30.76134 35333 ft 378 kts 295°
2026-04-14 14:21 35.23272 30.73248 35653 ft 375 kts 295°
2026-04-14 14:22 35.24426 30.70354 35970 ft 373 kts 295°
2026-04-14 14:22 35.25576 30.67508 36151 ft 372 kts 295°
2026-04-14 14:22 35.27892 30.61860 36185 ft 371 kts 295°
2026-04-14 14:23 35.30211 30.56217 36185 ft 370 kts 295°
2026-04-14 14:23 35.32507 30.50574 36185 ft 370 kts 295°
2026-04-14 14:24 35.34797 30.44927 36185 ft 370 kts 295°
2026-04-14 14:24 35.37093 30.39280 36190 ft 371 kts 295°
2026-04-14 14:25 35.39394 30.33623 36198 ft 370 kts 295°
2026-04-14 14:25 35.41682 30.27974 36201 ft 370 kts 295°
2026-04-14 14:26 35.43960 30.22322 36202 ft 370 kts 295°
2026-04-14 14:26 35.46236 30.16670 36205 ft 370 kts 295°
2026-04-14 14:27 35.48514 30.11017 36218 ft 370 kts 294°
2026-04-14 14:27 35.50794 30.05359 36218 ft 369 kts 294°
2026-04-14 14:28 35.53059 29.99714 36213 ft 369 kts 294°
2026-04-14 14:28 35.55421 29.94128 36217 ft 369 kts 296°
2026-04-14 14:29 35.57882 29.88555 36218 ft 369 kts 296°
2026-04-14 14:29 35.60307 29.83043 36216 ft 369 kts 296°
2026-04-14 14:30 35.62734 29.77448 36214 ft 369 kts 295°
2026-04-14 14:30 35.65132 29.71877 36213 ft 369 kts 295°
2026-04-14 14:31 35.67533 29.66292 36220 ft 369 kts 295°
2026-04-14 14:31 35.69935 29.60716 36219 ft 369 kts 295°
2026-04-14 14:32 35.72332 29.55135 36237 ft 369 kts 295°
2026-04-14 14:32 35.74726 29.49549 36231 ft 369 kts 295°
2026-04-14 14:33 35.77123 29.43951 36229 ft 369 kts 295°
2026-04-14 14:33 35.79514 29.38357 36227 ft 369 kts 295°
2026-04-14 14:34 35.83096 29.29953 36221 ft 369 kts 295°
2026-04-14 14:35 35.85482 29.24349 36224 ft 369 kts 294°
2026-04-14 14:35 35.87864 29.18737 36220 ft 370 kts 294°
2026-04-14 14:36 35.90249 29.13117 36217 ft 370 kts 294°
2026-04-14 14:36 35.92637 29.07482 36217 ft 370 kts 294°
2026-04-14 14:37 35.95014 29.01847 36220 ft 370 kts 294°
2026-04-14 14:37 35.97408 28.96171 36220 ft 370 kts 294°
2026-04-14 14:38 35.99774 28.90555 36222 ft 371 kts 294°
2026-04-14 14:38 36.02167 28.84863 36213 ft 371 kts 294°
2026-04-14 14:39 36.04544 28.79201 36213 ft 371 kts 294°
2026-04-14 14:39 36.06921 28.73534 36206 ft 372 kts 294°
2026-04-14 14:40 36.09296 28.67852 36209 ft 372 kts 294°
2026-04-14 14:40 36.11668 28.62175 36213 ft 372 kts 293°
2026-04-14 14:41 36.14031 28.56488 36212 ft 372 kts 293°
2026-04-14 14:41 36.16400 28.50799 36204 ft 372 kts 293°
2026-04-14 14:42 36.18774 28.45108 36205 ft 372 kts 293°
2026-04-14 14:42 36.21140 28.39400 36202 ft 372 kts 293°
2026-04-14 14:43 36.23499 28.33696 36204 ft 372 kts 292°
2026-04-14 14:43 36.25855 28.27987 36198 ft 372 kts 292°
2026-04-14 14:44 36.28207 28.22270 36199 ft 373 kts 292°
2026-04-14 14:44 36.30565 28.16542 36216 ft 373 kts 292°
2026-04-14 14:45 36.32922 28.10821 36215 ft 373 kts 294°
2026-04-14 14:45 36.35526 28.06440 36219 ft 384 kts 309°
2026-04-14 14:46 36.39451 28.01905 36210 ft 386 kts 309°
2026-04-14 14:46 36.43385 27.97365 36208 ft 387 kts 309°
2026-04-14 14:47 36.47325 27.92818 36203 ft 387 kts 309°
2026-04-14 14:47 36.51271 27.88255 36200 ft 387 kts 309°
2026-04-14 14:48 36.55206 27.83688 36194 ft 387 kts 309°
2026-04-14 14:48 36.59144 27.79112 36187 ft 387 kts 309°
2026-04-14 14:49 36.63081 27.74535 36212 ft 387 kts 309°
2026-04-14 14:49 36.67042 27.69919 36203 ft 388 kts 309°
2026-04-14 14:50 36.70959 27.65353 36200 ft 388 kts 309°
2026-04-14 14:50 36.74919 27.60731 36193 ft 387 kts 309°
2026-04-14 14:51 36.78850 27.56136 36200 ft 388 kts 309°
2026-04-14 14:51 36.82791 27.51517 36199 ft 388 kts 309°
2026-04-14 14:52 36.86727 27.46900 36202 ft 388 kts 309°
2026-04-14 14:52 36.90664 27.42278 36198 ft 389 kts 309°
2026-04-14 14:53 36.94606 27.37639 36219 ft 390 kts 309°
2026-04-14 14:53 36.98555 27.32986 36204 ft 389 kts 309°
2026-04-14 14:54 37.02484 27.28333 36203 ft 389 kts 309°
2026-04-14 14:54 37.06416 27.23682 36207 ft 389 kts 309°
2026-04-14 14:55 37.10351 27.19032 36197 ft 389 kts 309°
2026-04-14 14:55 37.14282 27.14372 36207 ft 389 kts 309°
2026-04-14 14:56 37.20191 27.07355 36196 ft 390 kts 309°
2026-04-14 14:56 37.24136 27.02656 36214 ft 391 kts 309°
2026-04-14 14:57 37.28075 26.97957 36210 ft 391 kts 309°
2026-04-14 14:57 37.32040 26.93222 36209 ft 391 kts 309°
2026-04-14 14:58 37.35982 26.88516 36205 ft 391 kts 309°
2026-04-14 14:58 37.39927 26.83790 36220 ft 392 kts 309°
2026-04-14 14:59 37.44021 26.79211 36207 ft 396 kts 312°
2026-04-14 14:59 37.48249 26.74755 36208 ft 397 kts 312°
2026-04-14 15:00 37.52475 26.70264 36209 ft 397 kts 311°
2026-04-14 15:00 37.56661 26.65732 36211 ft 397 kts 311°
2026-04-14 15:01 37.60844 26.61186 36213 ft 397 kts 311°
2026-04-14 15:01 37.65031 26.56641 36210 ft 397 kts 311°
2026-04-14 15:02 37.69217 26.52081 36203 ft 398 kts 311°
2026-04-14 15:02 37.73421 26.47505 36196 ft 399 kts 311°
2026-04-14 15:03 37.77630 26.42934 36196 ft 399 kts 311°
2026-04-14 15:03 37.81840 26.38353 36202 ft 399 kts 311°
2026-04-14 15:04 37.86045 26.33758 36213 ft 400 kts 311°
2026-04-14 15:04 37.90261 26.29151 36209 ft 400 kts 311°
2026-04-14 15:05 37.94464 26.24538 36207 ft 400 kts 310°
2026-04-14 15:05 37.98696 26.19873 36201 ft 401 kts 310°
2026-04-14 15:06 38.02908 26.15222 36195 ft 402 kts 310°
2026-04-14 15:06 38.07142 26.10554 36201 ft 403 kts 310°
2026-04-14 15:07 38.11367 26.05894 36214 ft 403 kts 310°
2026-04-14 15:07 38.15599 26.01213 36228 ft 403 kts 310°
2026-04-14 15:08 38.19822 25.96533 36222 ft 403 kts 310°
2026-04-14 15:08 38.24054 25.91832 36232 ft 403 kts 310°
2026-04-14 15:09 38.28354 25.87223 36215 ft 406 kts 313°
2026-04-14 15:09 38.32849 25.82821 36212 ft 408 kts 314°
2026-04-14 15:10 38.37367 25.78443 36210 ft 408 kts 314°
2026-04-14 15:10 38.41846 25.74014 36221 ft 407 kts 313°
2026-04-14 15:11 38.46296 25.69550 36215 ft 407 kts 313°
2026-04-14 15:11 38.50731 25.65094 36213 ft 406 kts 313°
2026-04-14 15:12 38.55182 25.60631 36214 ft 407 kts 313°
2026-04-14 15:12 38.59629 25.56163 36209 ft 407 kts 313°
2026-04-14 15:13 38.64115 25.51657 36201 ft 407 kts 313°
2026-04-14 15:13 38.68532 25.47210 36216 ft 407 kts 313°
2026-04-14 15:14 38.73008 25.42685 36204 ft 408 kts 313°
2026-04-14 15:14 38.77459 25.38178 36197 ft 408 kts 313°
2026-04-14 15:15 38.81919 25.33665 36188 ft 409 kts 313°
2026-04-14 15:15 38.86389 25.29130 36185 ft 410 kts 313°
2026-04-14 15:16 38.90854 25.24587 36181 ft 410 kts 313°
2026-04-14 15:16 38.95335 25.20027 36195 ft 411 kts 313°
2026-04-14 15:17 38.99817 25.15456 36188 ft 412 kts 313°
2026-04-14 15:17 39.04310 25.10875 36183 ft 412 kts 313°
2026-04-14 15:18 39.08049 25.07056 36184 ft 413 kts 313°
2026-04-14 15:18 39.13312 25.01679 36211 ft 413 kts 313°
2026-04-14 15:19 39.17082 24.97811 36186 ft 414 kts 313°
2026-04-14 15:19 39.21584 24.93173 36178 ft 415 kts 313°
2026-04-14 15:20 39.26108 24.88512 36183 ft 416 kts 313°
2026-04-14 15:20 39.30640 24.83850 36180 ft 417 kts 313°
2026-04-14 15:21 39.35175 24.79169 36184 ft 417 kts 312°
2026-04-14 15:21 39.39700 24.74481 36185 ft 417 kts 313°
2026-04-14 15:22 39.44229 24.69790 36188 ft 418 kts 313°
2026-04-14 15:22 39.48770 24.65087 36190 ft 417 kts 312°
2026-04-14 15:23 39.53290 24.60378 36204 ft 417 kts 312°
2026-04-14 15:23 39.57813 24.55671 36200 ft 417 kts 312°
2026-04-14 15:24 39.62340 24.50942 36196 ft 417 kts 312°
2026-04-14 15:24 39.66857 24.46214 36194 ft 417 kts 312°
2026-04-14 15:25 39.71379 24.41486 36197 ft 417 kts 312°
2026-04-14 15:25 39.75896 24.36750 36209 ft 418 kts 312°
2026-04-14 15:26 39.80452 24.31971 36217 ft 417 kts 312°
2026-04-14 15:26 39.84934 24.27259 36210 ft 417 kts 312°
2026-04-14 15:27 39.89466 24.22472 36206 ft 417 kts 312°
2026-04-14 15:27 39.93966 24.17713 36206 ft 417 kts 312°
2026-04-14 15:28 39.98465 24.12951 36205 ft 417 kts 312°
2026-04-14 15:28 40.02971 24.08176 36224 ft 417 kts 312°
2026-04-14 15:29 40.07467 24.03404 36220 ft 417 kts 312°
2026-04-14 15:29 40.11966 23.98625 36209 ft 417 kts 312°
2026-04-14 15:30 40.16461 23.93832 36209 ft 417 kts 312°
2026-04-14 15:30 40.20961 23.89019 36194 ft 417 kts 312°
2026-04-14 15:31 40.25459 23.84216 36209 ft 418 kts 312°
2026-04-14 15:31 40.29955 23.79404 36202 ft 418 kts 312°
2026-04-14 15:32 40.34446 23.74583 36213 ft 418 kts 311°
2026-04-14 15:32 40.38947 23.69738 36210 ft 419 kts 311°
2026-04-14 15:33 40.43458 23.64884 36200 ft 419 kts 312°
2026-04-14 15:33 40.47965 23.60022 36192 ft 419 kts 311°
2026-04-14 15:34 40.52477 23.55146 36332 ft 421 kts 312°
2026-04-14 15:34 40.54759 23.52676 36584 ft 420 kts 312°
2026-04-14 15:34 40.56986 23.50268 36871 ft 419 kts 312°
2026-04-14 15:35 40.59268 23.47797 37139 ft 418 kts 312°
2026-04-14 15:35 40.61506 23.45369 37400 ft 417 kts 313°
2026-04-14 15:35 40.63741 23.42937 37647 ft 416 kts 313°
2026-04-14 15:35 40.65976 23.40503 37833 ft 417 kts 313°
2026-04-14 15:36 40.68214 23.38065 38015 ft 418 kts 313°
2026-04-14 15:36 40.70450 23.35633 38173 ft 418 kts 313°
2026-04-14 15:36 40.74934 23.30748 38197 ft 417 kts 313°
2026-04-14 15:37 40.79400 23.25869 38195 ft 417 kts 313°
2026-04-14 15:37 40.83865 23.20982 38193 ft 417 kts 314°
2026-04-14 15:38 40.88335 23.16078 38190 ft 418 kts 314°
2026-04-14 15:38 40.92809 23.11168 38192 ft 418 kts 314°
2026-04-14 15:39 40.97293 23.06232 38196 ft 419 kts 314°
2026-04-14 15:39 41.01778 23.01278 38194 ft 420 kts 314°
2026-04-14 15:40 41.06266 22.96317 38191 ft 421 kts 314°
2026-04-14 15:40 41.10756 22.91342 38206 ft 421 kts 315°
2026-04-14 15:41 41.15248 22.86364 38205 ft 421 kts 314°
2026-04-14 15:41 41.19748 22.81378 38197 ft 421 kts 315°
2026-04-14 15:42 41.24229 22.76381 38200 ft 420 kts 312°
2026-04-14 15:42 41.28213 22.70730 38185 ft 416 kts 307°